User: anonymous   Login
Location: Unspecified
(39.0670°S, 0.0000°E)
Time: 02:58:33
(UTC+00:00)
Language:

BEESAT 2 - Orbit

View from above orbital plane
View from above orbital plane
View from above satellite
View from above satellite

Ground track
Ground track

The orbit data is extracted from the following two-line orbital elements,

1 39136U 13015G   19296.55381861  .00000748  00000-0  47276-4 0  9995
2 39136  64.8695 353.6464 0029163 294.6389  65.1700 15.17085774359411
Epoch (UTC): 23 October 2019 13:17:29
Eccentricity: 0.0029163
inclination: 64.8695°
perigee height: 494 km
apogee height: 535 km
right ascension of ascending node: 353.6464°
argument of perigee: 294.6389°
revolutions per day: 15.17085774
mean anomaly at epoch: 65.1700°
orbit number at epoch: 35941

The dashed part of the orbit path shows where the satellite is in the earth's shadow,  

DLR